Roseau, MN

6:11 PM CST on February 27, 2017 (GMT -0600)
Roseau Municipal-Billberg

Weather History for KROX - July, 2013

Change the Weather History Date:

Monday, July 15, 2013

  Actual Average Record
Temperature  
Mean Temperature 72 °F -  
Max Temperature 84 °F 78 °F 91 °F (2002)
Min Temperature 60 °F 54 °F 37 °F (1973)
Cooling Degree Days 7    
Growing Degree Days 22 (Base 50)    
Moisture  
Dew Point 63 °F    
Average Humidity 73    
Maximum Humidity 83    
Minimum Humidity 61    
Precipitation  
Precipitation 0.00 in - - ()
Sea Level Pressure  
Sea Level Pressure 30.15 in    
Wind  
Wind Speed 5 mph (South)    
Max Wind Speed 20 mph    
Max Gust Speed 25 mph    
Visibility 10 miles    
Events      
Averages and records for this station are not official NWS values.
T = Trace of Precipitation, MM = Missing Value Source: NWS Daily Summary

Daily Weather History Graph

Daily Weather History Graph

Search for Another Location

Airport or City:

Trip Planner

Search our weather history database for the weather conditions in past years. The results will help you decide how hot, cold, wet, or windy it might be!

Date:

Astronomy

Jul. 15, 2013 Rise Set
Actual Time 5:35 AM CDT 9:21 PM CDT
Civil Twilight 4:55 AM CDT 10:01 PM CDT
Nautical Twilight 4:00 AM CDT 10:56 PM CDT
Astronomical Twilight 2:37 AM CDT 12:17 AM CDT
Moon 1:39 PM CDT (7/15) No Moon Set
Length of Visible Light 17h 06m
Length of Day
15h 45m
Waxing Crescent, 45% of the Moon is Illuminated
Jul 15
Waxing Crescent
Jul 15
First Quarter
Jul 22
Full
Jul 29
Last Quarter
Aug 6
New

Hourly Weather History & Observations

Time (CDT) Temp. Heat Index Dew Point Humidity Pressure Visibility Wind Dir Wind Speed Gust Speed Precip Events Conditions
12:14 AM 64.4 °F - 57.2 °F 77% 30.20 in 10.0 mi NNE 5.8 mph - N/A   Clear
12:34 AM 62.6 °F - 57.2 °F 82% 30.19 in 10.0 mi NE 4.6 mph - N/A   Scattered Clouds
12:54 AM 62.6 °F - 55.4 °F 77% 30.19 in 10.0 mi NE 5.8 mph - N/A   Mostly Cloudy
1:14 AM 64.4 °F - 55.4 °F 73% 30.20 in 10.0 mi NNW 3.5 mph - N/A   Mostly Cloudy
1:34 AM 64.4 °F - 57.2 °F 77% 30.19 in 10.0 mi Calm Calm - N/A   Scattered Clouds
1:54 AM 62.6 °F - 55.4 °F 77% 30.19 in 10.0 mi Calm Calm - N/A   Clear
2:14 AM 62.6 °F - 55.4 °F 77% 30.19 in 10.0 mi Calm Calm - N/A   Scattered Clouds
2:34 AM 62.6 °F - 55.4 °F 77% 30.19 in 10.0 mi ENE 3.5 mph - N/A   Scattered Clouds
2:54 AM 62.6 °F - 57.2 °F 82% 30.19 in 10.0 mi Calm Calm - N/A   Clear
3:14 AM 62.6 °F - 57.2 °F 82% 30.18 in 10.0 mi Calm Calm - N/A   Clear
3:35 AM 62.6 °F - 55.4 °F 77% 30.19 in 10.0 mi NNW 3.5 mph - N/A   Clear
3:54 AM 62.6 °F - 55.4 °F 77% 30.20 in 10.0 mi Calm Calm - N/A   Scattered Clouds
4:14 AM 62.6 °F - 55.4 °F 77% 30.19 in 10.0 mi Calm Calm - N/A   Mostly Cloudy
4:35 AM 62.6 °F - 55.4 °F 77% 30.19 in 10.0 mi Calm Calm - N/A   Scattered Clouds
4:54 AM 62.6 °F - 55.4 °F 77% 30.19 in 10.0 mi Calm Calm - N/A   Clear
5:14 AM 62.6 °F - 55.4 °F 77% 30.19 in 10.0 mi Calm Calm - N/A   Clear
5:35 AM 60.8 °F - 55.4 °F 82% 30.19 in 10.0 mi Calm Calm - N/A   Clear
5:54 AM 60.8 °F - 55.4 °F 82% 30.19 in 10.0 mi Calm Calm - N/A   Clear
6:14 AM 60.8 °F - 55.4 °F 82% 30.20 in 10.0 mi Calm Calm - N/A   Clear
6:35 AM 60.8 °F - 55.4 °F 82% 30.20 in 10.0 mi Calm Calm - N/A   Clear
6:54 AM 60.8 °F - 55.4 °F 82% 30.20 in 10.0 mi Calm Calm - N/A   Clear
7:14 AM 62.6 °F - 55.4 °F 77% 30.20 in 10.0 mi Calm Calm - N/A   Clear
7:34 AM 64.4 °F - 57.2 °F 77% 30.20 in 10.0 mi Calm Calm - N/A   Mostly Cloudy
7:54 AM 66.2 °F - 57.2 °F 73% 30.20 in 10.0 mi Calm Calm - N/A   Scattered Clouds
8:14 AM 66.2 °F - 60.8 °F 83% 30.19 in 10.0 mi Calm Calm - N/A   Clear
8:34 AM 69.8 °F - 60.8 °F 73% 30.19 in 10.0 mi Calm Calm - N/A   Clear
8:54 AM 69.8 °F - 62.6 °F 78% 30.19 in 10.0 mi Calm Calm - N/A   Clear
9:14 AM 71.6 °F - 64.4 °F 78% 30.20 in 10.0 mi South 3.5 mph - N/A   Clear
9:34 AM 73.4 °F - 64.4 °F 73% 30.19 in 10.0 mi Calm Calm - N/A   Clear
9:54 AM 73.4 °F - 66.2 °F 78% 30.19 in 10.0 mi Calm Calm - N/A   Scattered Clouds
10:14 AM 75.2 °F - 66.2 °F 73% 30.19 in 10.0 mi Calm Calm - N/A   Clear
10:34 AM 77.0 °F - 66.2 °F 69% 30.19 in 10.0 mi Calm Calm - N/A   Clear
10:54 AM 77.0 °F - 66.2 °F 69% 30.18 in 10.0 mi South 4.6 mph - N/A   Clear
11:14 AM 78.8 °F - 66.2 °F 65% 30.18 in 10.0 mi SSW 3.5 mph - N/A   Clear
11:34 AM 78.8 °F - 64.4 °F 61% 30.18 in 10.0 mi Calm Calm - N/A   Clear
11:54 AM 80.6 °F 82.7 °F 66.2 °F 61% 30.18 in 10.0 mi South 6.9 mph - N/A   Clear
12:14 PM 80.6 °F 82.7 °F 66.2 °F 61% 30.18 in 10.0 mi South 6.9 mph - N/A   Clear
12:34 PM 80.6 °F 83.2 °F 68.0 °F 65% 30.17 in 10.0 mi South 4.6 mph - N/A   Scattered Clouds
12:54 PM 80.6 °F 83.9 °F 69.8 °F 70% 30.17 in 10.0 mi SSW 6.9 mph - N/A   Scattered Clouds
1:14 PM 80.6 °F 83.9 °F 69.8 °F 70% 30.16 in 10.0 mi South 3.5 mph - N/A   Clear
1:34 PM 80.6 °F 84.6 °F 71.6 °F 74% 30.16 in 10.0 mi SSE 6.9 mph - N/A   Clear
1:54 PM 80.6 °F 83.9 °F 69.8 °F 70% 30.15 in 10.0 mi South 8.1 mph - N/A   Clear
2:14 PM 82.4 °F 87.2 °F 71.6 °F 70% 30.15 in 10.0 mi South 9.2 mph - N/A   Clear
2:34 PM 82.4 °F 86.3 °F 69.8 °F 66% 30.14 in 10.0 mi South 10.4 mph - N/A   Clear
2:54 PM 82.4 °F 87.2 °F 71.6 °F 70% 30.14 in 10.0 mi South 10.4 mph - N/A   Scattered Clouds
3:14 PM 82.4 °F 86.3 °F 69.8 °F 66% 30.13 in 10.0 mi South 9.2 mph - N/A   Clear
3:34 PM 84.2 °F 88.4 °F 69.8 °F 62% 30.12 in 10.0 mi South 10.4 mph - N/A   Clear
3:54 PM 82.4 °F 86.3 °F 69.8 °F 66% 30.12 in 10.0 mi SSE 12.7 mph 18.4 mph N/A   Scattered Clouds
4:14 PM 80.6 °F 83.9 °F 69.8 °F 70% 30.11 in 10.0 mi SSE 15.0 mph - N/A   Scattered Clouds
4:34 PM 82.4 °F 87.2 °F 71.6 °F 70% 30.11 in 10.0 mi South 15.0 mph - N/A   Clear
4:54 PM 80.6 °F 84.6 °F 71.6 °F 74% 30.12 in 10.0 mi SSW 19.6 mph 25.3 mph N/A   Clear
5:14 PM 80.6 °F 83.9 °F 69.8 °F 70% 30.11 in 10.0 mi South 18.4 mph 25.3 mph N/A   Clear
5:34 PM 80.6 °F 83.9 °F 69.8 °F 70% 30.12 in 10.0 mi South 16.1 mph 24.2 mph N/A   Clear
5:54 PM 80.6 °F 83.9 °F 69.8 °F 70% 30.11 in 10.0 mi SSW 16.1 mph - N/A   Clear
6:14 PM 78.8 °F - 69.8 °F 74% 30.11 in 10.0 mi South 16.1 mph 24.2 mph N/A   Clear
6:34 PM 78.8 °F - 69.8 °F 74% 30.11 in 10.0 mi South 13.8 mph - N/A   Clear
6:54 PM 78.8 °F - 66.2 °F 65% 30.10 in 10.0 mi South 18.4 mph 24.2 mph N/A   Clear
7:14 PM 78.8 °F - 66.2 °F 65% 30.10 in 10.0 mi South 16.1 mph - N/A   Clear
7:34 PM 77.0 °F - 66.2 °F 69% 30.09 in 10.0 mi South 15.0 mph 19.6 mph N/A   Clear
7:54 PM 77.0 °F - 66.2 °F 69% 30.09 in 10.0 mi South 15.0 mph 19.6 mph N/A   Clear
8:15 PM 75.2 °F - 66.2 °F 73% 30.08 in 10.0 mi South 11.5 mph 17.3 mph N/A   Scattered Clouds
8:34 PM 75.2 °F - 66.2 °F 73% 30.07 in 10.0 mi South 10.4 mph 17.3 mph N/A   Scattered Clouds
8:54 PM 75.2 °F - 66.2 °F 73% 30.07 in 10.0 mi South 11.5 mph - N/A   Mostly Cloudy
9:15 PM 73.4 °F - 66.2 °F 78% 30.07 in 10.0 mi South 11.5 mph - N/A   Mostly Cloudy
9:34 PM 73.4 °F - 64.4 °F 73% 30.07 in 10.0 mi South 9.2 mph - N/A   Mostly Cloudy
9:54 PM 73.4 °F - 64.4 °F 73% 30.07 in 10.0 mi South 9.2 mph - N/A   Overcast
10:14 PM 73.4 °F - 64.4 °F 73% 30.07 in 10.0 mi SSE 9.2 mph - N/A   Overcast
10:34 PM 73.4 °F - 64.4 °F 73% 30.06 in 10.0 mi SSE 9.2 mph 16.1 mph N/A   Overcast
10:54 PM 73.4 °F - 64.4 °F 73% 30.06 in 10.0 mi SSE 10.4 mph - N/A   Mostly Cloudy
11:14 PM 73.4 °F - 64.4 °F 73% 30.06 in 10.0 mi South 10.4 mph 16.1 mph N/A   Mostly Cloudy
11:34 PM 73.4 °F - 64.4 °F 73% 30.06 in 10.0 mi SSE 13.8 mph - N/A   Scattered Clouds
11:54 PM 73.4 °F - 66.2 °F 78% 30.06 in 10.0 mi South 10.4 mph 19.6 mph N/A   Scattered Clouds